User: anonymous   Login
Location: Unspecified
(0.0000°N, 0.0000°E)
Time: 05:26:59
(UTC+00:00)
Language:

Meteor 2-4 - Orbit

View from above orbital plane
View from above orbital plane
View from above satellite
View from above satellite

Ground track
Ground track

The orbit data is extracted from the following two-line orbital elements,

1 11288U 79021A   18018.16787699  .00000027  00000-0  77044-5 0  9996
2 11288  81.2159 267.2216 0024052  12.6387 347.5382 14.11834850  1776
Epoch (UTC): 18 January 2018 04:01:44
Eccentricity: 0.0024052
inclination: 81.2159°
perigee height: 836 km
apogee height: 870 km
right ascension of ascending node: 267.2216°
argument of perigee: 12.6387°
revolutions per day: 14.11834850
mean anomaly at epoch: 347.5382°
orbit number at epoch: 177

The dashed part of the orbit path shows where the satellite is in the earth's shadow,  

DLR